When you browse on this site, cookies collect data to enhance your experience and personalize the content and advertising you see.
Visit our Privacy Policy to learn more. By continuing to use the site, you agree to this use of cookies and data.
  • In United Kingdom
  • List of Countries
  • For 7 days
  • Water Temperature
  • Satellite Maps
  • Weather Map
  • Weather Widgets
  • user-avatar
    Login

    Hourly Weather Levkovichі (Volodarka)

    Today, 9 December, Sunday

    Time Temperature Precipitation Wind Pressure Humidity
    00:00 -1°C° 0.3 mm 3 mps 743 mmHg 96%
    01:00 -1°C° 0.3 mm 3 mps 743 mmHg 96%
    02:00 -1°C° 0 mm 2 mps 742 mmHg 97%
    03:00 -1°C° 0.4 mm 2 mps 742 mmHg 97%
    04:00 -1°C° 0.4 mm 2 mps 742 mmHg 97%
    05:00 +1°C° 0.4 mm 2 mps 742 mmHg 97%
    06:00 +1°C° 0.5 mm 2 mps 742 mmHg 97%
    07:00 +1°C° 0.5 mm 2 mps 741 mmHg 97%
    08:00 +1°C° 0 mm 2 mps 741 mmHg 97%
    09:00 +1°C° 0.2 mm 2 mps 741 mmHg 97%
    10:00 +1°C° 0.2 mm 2 mps 741 mmHg 98%
    11:00 +1°C° 0.2 mm 2 mps 741 mmHg 98%
    12:00 +1°C° 0 mm 2 mps 741 mmHg 98%
    13:00 +1°C° 0 mm 2 mps 741 mmHg 97%
    14:00 +2°C° 0 mm 1 mps 740 mmHg 96%
    15:00 +1°C° 0 mm 2 mps 740 mmHg 96%
    16:00 -1°C° 0 mm 2 mps 740 mmHg 95%
    17:00 -2°C° 0 mm 3 mps 740 mmHg 94%
    18:00 -2°C° 0 mm 3 mps 740 mmHg 94%
    19:00 -2°C° 0 mm 3 mps 740 mmHg 93%
    20:00 -2°C° 0 mm 3 mps 740 mmHg 92%
    21:00 -2°C° 0 mm 3 mps 740 mmHg 92%
    22:00 -2°C° 0 mm 4 mps 740 mmHg 91%
    23:00 -2°C° 0 mm 4 mps 739 mmHg 91%

    Tomorrow, 10 December, Monday

    Time Temperature Precipitation Wind Pressure Humidity
    00:00 -2°C° 0 mm 4 mps 739 mmHg 92%
    01:00 -3°C° 0 mm 4 mps 739 mmHg 92%
    02:00 -2°C° 0 mm 3 mps 739 mmHg 93%
    03:00 -2°C° 0.1 mm 3 mps 739 mmHg 93%
    04:00 -2°C° 0.1 mm 3 mps 739 mmHg 93%
    05:00 -2°C° 0.1 mm 3 mps 739 mmHg 93%
    06:00 -2°C° 0.1 mm 3 mps 739 mmHg 93%
    07:00 -2°C° 0.1 mm 3 mps 739 mmHg 93%
    08:00 -1°C° 0.1 mm 3 mps 739 mmHg 93%
    09:00 -1°C° 0 mm 3 mps 739 mmHg 92%
    10:00 -1°C° 0 mm 3 mps 740 mmHg 92%
    11:00 0°C° 0 mm 3 mps 740 mmHg 92%
    12:00 0°C° 0 mm 3 mps 740 mmHg 92%
    13:00 0°C° 0 mm 3 mps 740 mmHg 93%
    14:00 0°C° 0 mm 3 mps 740 mmHg 93%
    15:00 -1°C° 0 mm 2 mps 740 mmHg 93%
    16:00 -1°C° 0 mm 2 mps 740 mmHg 94%
    17:00 -2°C° 0 mm 2 mps 740 mmHg 94%
    18:00 -2°C° 0 mm 2 mps 741 mmHg 94%
    19:00 -2°C° 0 mm 2 mps 741 mmHg 94%
    20:00 -2°C° 0 mm 2 mps 741 mmHg 94%
    21:00 -2°C° 0 mm 2 mps 741 mmHg 94%
    22:00 -2°C° 0 mm 2 mps 741 mmHg 95%
    23:00 -2°C° 0 mm 2 mps 742 mmHg 95%

    Day after tomorrow, 11 December, Tuesday

    Time Temperature Precipitation Wind Pressure Humidity
    00:00 -3°C° 0 mm 2 mps 742 mmHg 95%
    01:00 -3°C° 0 mm 2 mps 742 mmHg 95%
    02:00 -3°C° 0 mm 2 mps 743 mmHg 95%
    03:00 -3°C° 0 mm 2 mps 743 mmHg 95%
    04:00 -3°C° 0 mm 2 mps 743 mmHg 95%
    05:00 -3°C° 0 mm 2 mps 743 mmHg 95%
    06:00 -4°C° 0 mm 2 mps 743 mmHg 95%
    07:00 -4°C° 0 mm 2 mps 744 mmHg 95%
    08:00 -4°C° 0 mm 2 mps 744 mmHg 95%
    09:00 -3°C° 0 mm 2 mps 744 mmHg 94%
    10:00 0°C° 0 mm 1 mps 745 mmHg 94%
    11:00 0°C° 0 mm 1 mps 745 mmHg 93%
    12:00 0°C° 0 mm 1 mps 745 mmHg 93%
    13:00 0°C° 0 mm 1 mps 746 mmHg 93%
    14:00 +1°C° 0 mm 1 mps 746 mmHg 94%
    15:00 0°C° 0 mm 1 mps 746 mmHg 94%
    16:00 -1°C° 0 mm 1 mps 746 mmHg 95%
    17:00 -2°C° 0 mm 1 mps 747 mmHg 95%
    18:00 -1°C° 0 mm 1 mps 747 mmHg 95%
    19:00 -1°C° 0 mm 1 mps 747 mmHg 96%
    20:00 -1°C° 0 mm 1 mps 747 mmHg 96%
    21:00 -3°C° 0 mm 2 mps 747 mmHg 96%
    22:00 -2°C° 0 mm 2 mps 747 mmHg 96%
    23:00 -2°C° 0 mm 2 mps 747 mmHg 96%

    12 December, Wednesday

    Time Temperature Precipitation Wind Pressure Humidity
    00:00 -2°C° 0 mm 2 mps 747 mmHg 96%
    01:00 -2°C° 0 mm 3 mps 747 mmHg 96%
    02:00 -2°C° 0 mm 3 mps 747 mmHg 96%
    03:00 -2°C° 0.1 mm 3 mps 747 mmHg 95%
    04:00 -3°C° 0.1 mm 4 mps 747 mmHg 95%
    05:00 -3°C° 0.1 mm 4 mps 747 mmHg 94%
    06:00 -4°C° 0.2 mm 5 mps 747 mmHg 94%
    07:00 -2°C° 0.2 mm 5 mps 746 mmHg 94%
    08:00 -3°C° 0.2 mm 6 mps 746 mmHg 93%
    09:00 -3°C° 0.8 mm 6 mps 746 mmHg 93%
    10:00 -3°C° 0.8 mm 6 mps 746 mmHg 93%
    11:00 -3°C° 0.8 mm 6 mps 745 mmHg 93%
    12:00 -3°C° 0.9 mm 6 mps 745 mmHg 93%
    13:00 -3°C° 0.9 mm 6 mps 745 mmHg 92%
    14:00 -3°C° 0.9 mm 6 mps 744 mmHg 92%
    15:00 -3°C° 0.7 mm 6 mps 744 mmHg 92%
    16:00 -3°C° 0.7 mm 6 mps 744 mmHg 92%
    17:00 -2°C° 0.7 mm 6 mps 744 mmHg 93%
    18:00 -2°C° 0.6 mm 6 mps 744 mmHg 93%
    19:00 -2°C° 0.6 mm 6 mps 743 mmHg 93%
    20:00 -1°C° 0.6 mm 5 mps 743 mmHg 93%
    21:00 -1°C° 0.4 mm 5 mps 743 mmHg 94%
    22:00 -1°C° 0.4 mm 5 mps 743 mmHg 94%
    23:00 -1°C° 0.4 mm 5 mps 743 mmHg 94%

    13 December, Thursday

    Time Temperature Precipitation Wind Pressure Humidity
    00:00 -1°C° 0.2 mm 5 mps 743 mmHg 94%
    01:00 -1°C° 0.2 mm 5 mps 743 mmHg 94%
    02:00 -1°C° 0.2 mm 5 mps 743 mmHg 94%
    03:00 -1°C° 0.3 mm 5 mps 743 mmHg 93%
    04:00 -1°C° 0.3 mm 5 mps 743 mmHg 93%
    05:00 -1°C° 0.3 mm 5 mps 743 mmHg 92%
    06:00 -1°C° 0.4 mm 5 mps 743 mmHg 92%
    07:00 -1°C° 0.4 mm 5 mps 743 mmHg 92%
    08:00 -1°C° 0.4 mm 5 mps 743 mmHg 92%
    09:00 -1°C° 0.3 mm 5 mps 743 mmHg 93%
    10:00 -1°C° 0.3 mm 5 mps 744 mmHg 94%
    11:00 -1°C° 0.3 mm 5 mps 744 mmHg 94%
    12:00 -1°C° 0.3 mm 5 mps 744 mmHg 94%
    13:00 -1°C° 0.3 mm 5 mps 744 mmHg 94%
    14:00 -1°C° 0.3 mm 4 mps 744 mmHg 94%
    15:00 -1°C° 0.2 mm 4 mps 744 mmHg 94%
    16:00 -1°C° 0.2 mm 4 mps 745 mmHg 93%
    17:00 -2°C° 0.2 mm 4 mps 745 mmHg 92%
    18:00 -2°C° 0.2 mm 4 mps 745 mmHg 92%
    19:00 -2°C° 0.2 mm 4 mps 745 mmHg 92%
    20:00 -2°C° 0.2 mm 4 mps 745 mmHg 92%
    21:00 -2°C° 0.2 mm 4 mps 746 mmHg 93%
    22:00 -2°C° 0.2 mm 4 mps 746 mmHg 93%
    23:00 -2°C° 0.2 mm 4 mps 746 mmHg 93%

    14 December, Friday

    Time Temperature Precipitation Wind Pressure Humidity
    00:00 -2°C° 0.2 mm 4 mps 746 mmHg 93%
    01:00 -2°C° 0.2 mm 4 mps 746 mmHg 94%
    02:00 -2°C° 0.2 mm 4 mps 747 mmHg 94%
    03:00 -2°C° 0.2 mm 4 mps 747 mmHg 94%
    04:00 -2°C° 0.2 mm 4 mps 747 mmHg 94%
    05:00 -2°C° 0.2 mm 4 mps 747 mmHg 94%
    06:00 -2°C° 0.1 mm 4 mps 747 mmHg 94%
    07:00 -2°C° 0.1 mm 4 mps 747 mmHg 94%
    08:00 -2°C° 0.1 mm 3 mps 747 mmHg 94%
    09:00 -2°C° 0.1 mm 4 mps 748 mmHg 94%
    10:00 -2°C° 0.1 mm 4 mps 748 mmHg 94%
    11:00 -2°C° 0.1 mm 4 mps 748 mmHg 94%
    12:00 -2°C° 0.2 mm 4 mps 748 mmHg 94%
    13:00 -2°C° 0.2 mm 4 mps 748 mmHg 94%
    14:00 -2°C° 0.2 mm 4 mps 748 mmHg 94%
    15:00 -1°C° 0.2 mm 3 mps 748 mmHg 94%
    16:00 -1°C° 0.2 mm 3 mps 748 mmHg 94%
    17:00 -1°C° 0.2 mm 3 mps 749 mmHg 94%
    18:00 -1°C° 0.1 mm 3 mps 749 mmHg 94%
    19:00 -1°C° 0.1 mm 3 mps 749 mmHg 94%
    20:00 -1°C° 0.1 mm 3 mps 749 mmHg 95%
    21:00 -1°C° 0.1 mm 3 mps 749 mmHg 95%
    22:00 -2°C° 0.1 mm 3 mps 749 mmHg 95%
    23:00 -2°C° 0.1 mm 3 mps 749 mmHg 95%
    Show more